Location: Dal�� Lhota
(48.7500°N, 14.0167°E)
Time: 23:09:54
(UTC+00:00)

Transit 2A - Pass Details

Date: 27 July 2021
Orbit: 594 x 964 km, 66.7° (Epoch: 26 September)

Event Time Altitude Azimuth Distance (km) Brightness Sun altitude
Rises 11:35:50 0° 321° (NW) 3,047 8.9 59.9°
Reaches altitude 10° 11:39:59 10° 356° (N) 2,225 8.2 59.8°
Maximum altitude 11:41:33 11° 14° (NNE) 2,172 8.2 59.7°
Drops below altitude 10° 11:43:10 10° 32° (NNE) 2,300 8.3 59.6°
Sets 11:47:42 0° 66° (ENE) 3,338 9.1 59.4°
